Rome, GA

3:00 PM EDT on September 25, 2017 (GMT -0400)
Russell

Weather History for KRMG - June, 2013

Change the Weather History Date:

Tuesday, June 4, 2013

  Actual Average Record
Temperature  
Mean Temperature 75 °F 74 °F  
Max Temperature 88 °F 85 °F 97 °F (2002)
Min Temperature 61 °F 62 °F 57 °F (2006)
Cooling Degree Days 10 9  
Month to date cooling degree days 45 33  
Year to date cooling degree days 188 201  
Since 1 June cooling degree days 45 33  
Growing Degree Days 24 (Base 50)    
Moisture  
Dew Point 63 °F    
Average Humidity 67    
Maximum Humidity 93    
Minimum Humidity 40    
Precipitation  
Precipitation 0.00 in 0.14 in 1.16 in (2017)
Month to date precipitation 0.24 0.56  
Year to date precipitation 15.04 23.43  
Sea Level Pressure  
Sea Level Pressure 29.97 in    
Wind  
Wind Speed 2 mph (North)    
Max Wind Speed 9 mph    
Max Gust Speed 13 mph    
Visibility 10 miles    
Events      
T = Trace of Precipitation, MM = Missing Value Source: NWS Daily Summary

Daily Weather History Graph

Daily Weather History Graph

Search for Another Location

Airport or City:

Trip Planner

Search our weather history database for the weather conditions in past years. The results will help you decide how hot, cold, wet, or windy it might be!

Date:

Astronomy

Jun. 04, 2013 Rise Set
Actual Time 6:28 AM EDT 8:49 PM EDT
Civil Twilight 5:59 AM EDT 9:18 PM EDT
Nautical Twilight 5:24 AM EDT 9:54 PM EDT
Astronomical Twilight 4:45 AM EDT 10:33 PM EDT
Moon 3:49 AM EDT (6/4) 5:25 PM EDT (6/4)
Length of Visible Light 15h 18m
Length of Day
14h 20m
Waning Crescent, 14% of the Moon is Illuminated
Jun 4
Waning Crescent
Jun 8
New
Jun 16
First Quarter
Jun 23
Full
Jun 30
Last Quarter

Hourly Weather History & Observations

Time (EDT) Temp. Heat Index Dew Point Humidity Pressure Visibility Wind Dir Wind Speed Gust Speed Precip Events Conditions
12:53 AM 66.9 °F - 64.0 °F 90% 29.96 in 10.0 mi Calm Calm - N/A   Partly Cloudy
1:53 AM 66.0 °F - 63.0 °F 90% 29.95 in 10.0 mi Calm Calm - N/A   Clear
2:53 AM 64.0 °F - 62.1 °F 93% 29.95 in 10.0 mi Calm Calm - N/A   Clear
3:53 AM 64.0 °F - 61.0 °F 90% 29.94 in 10.0 mi Calm Calm - N/A   Clear
4:53 AM 63.0 °F - 60.1 °F 90% 29.95 in 10.0 mi Calm Calm - N/A   Clear
5:53 AM 63.0 °F - 60.1 °F 90% 29.96 in 10.0 mi North 3.5 mph - N/A   Clear
6:53 AM 62.1 °F - 60.1 °F 93% 29.98 in 9.0 mi Calm Calm - N/A   Clear
7:53 AM 66.9 °F - 61.0 °F 81% 29.99 in 10.0 mi NNW 3.5 mph - N/A   Clear
8:53 AM 71.1 °F - 62.1 °F 73% 29.99 in 10.0 mi Calm Calm - N/A   Clear
9:53 AM 73.9 °F - 62.1 °F 66% 30.00 in 10.0 mi Calm Calm - N/A   Clear
10:53 AM 78.1 °F - 64.0 °F 62% 30.00 in 10.0 mi NNW 4.6 mph - N/A   Clear
11:53 AM 81.0 °F 81.9 °F 62.1 °F 52% 30.00 in 10.0 mi Calm Calm - N/A   Clear
12:53 PM 84.0 °F 84.9 °F 63.0 °F 49% 29.99 in 10.0 mi Calm Calm - N/A   Clear
1:53 PM 84.9 °F 86.1 °F 64.0 °F 49% 29.99 in 10.0 mi Variable 6.9 mph - N/A   Mostly Cloudy
2:53 PM 86.0 °F 87.3 °F 64.0 °F 48% 29.98 in 10.0 mi Variable 5.8 mph - N/A   Clear
3:53 PM 87.1 °F 87.5 °F 62.1 °F 43% 29.96 in 10.0 mi NW 4.6 mph - N/A   Clear
4:53 PM 86.0 °F 86.1 °F 61.0 °F 43% 29.95 in 10.0 mi Variable 3.5 mph - N/A   Partly Cloudy
5:53 PM 87.1 °F 87.0 °F 61.0 °F 41% 29.94 in 10.0 mi NW 5.8 mph - N/A   Partly Cloudy
6:53 PM 86.0 °F 86.3 °F 62.1 °F 44% 29.93 in 10.0 mi NNE 6.9 mph - N/A   Clear
7:53 PM 82.9 °F 84.0 °F 63.0 °F 51% 29.94 in 10.0 mi ENE 3.5 mph - N/A   Clear
8:53 PM 75.9 °F - 66.0 °F 71% 29.95 in 10.0 mi Calm Calm - N/A   Clear
9:53 PM 75.0 °F - 66.9 °F 76% 29.96 in 10.0 mi Calm Calm - N/A   Clear
10:53 PM 72.0 °F - 66.0 °F 81% 29.98 in 10.0 mi Calm Calm - N/A   Clear
11:53 PM 69.1 °F - 66.0 °F 90% 29.99 in 10.0 mi ESE 4.6 mph - N/A   Clear